User: anonymous   Login
Location: Unspecified
(0.0000°N, 0.0000°E)
Time: 07:44:52
(UTC+00:00)
Language:

UNISAT 5 - Orbit

View from above orbital plane
View from above orbital plane
View from above satellite
View from above satellite

Ground track
Ground track

The orbit data is extracted from the following two-line orbital elements,

1 39421U 13066F   19083.20268787  .00000114  00000-0  18230-4 0  9990
2 39421  97.5555 123.1463 0029516 263.3530  96.4328 14.87682716289542
Epoch (UTC): 24 March 2019 04:51:52
Eccentricity: 0.0029516
inclination: 97.5555°
perigee height: 584 km
apogee height: 626 km
right ascension of ascending node: 123.1463°
argument of perigee: 263.3530°
revolutions per day: 14.87682716
mean anomaly at epoch: 96.4328°
orbit number at epoch: 28954

The dashed part of the orbit path shows where the satellite is in the earth's shadow,  

DLR